Time,TemperatureF,DewpointF,PressureIn,WindDirection,WindDirectionDegrees,WindSpeedMPH,WindSpeedGustMPH,Humidity,HourlyPrecipIn,Conditions,Clouds,dailyrainin,SoftwareType,DateUTC
2014-12-28 00:03:00,45.5,45.0,30.04,West,270,0.0,2.0,97,0.04,,,0.00,weatherlink.com 1.10,2014-12-28 05:03:00,
2014-12-28 00:19:00,45.4,45.0,30.04,West,269,0.0,2.0,98,0.05,,,0.03,weatherlink.com 1.10,2014-12-28 05:19:00,
2014-12-28 00:33:00,42.9,42.0,30.04,NW,311,3.0,6.0,96,0.06,,,0.05,weatherlink.com 1.10,2014-12-28 05:33:00,
2014-12-28 00:48:00,42.0,41.0,30.01,North,11,1.0,3.0,96,0.08,,,0.07,weatherlink.com 1.10,2014-12-28 05:48:00,
2014-12-28 01:03:00,41.7,41.0,30.01,North,351,0.0,3.0,97,0.08,,,0.08,weatherlink.com 1.10,2014-12-28 06:03:00,
2014-12-28 01:19:00,41.2,40.0,30.01,WNW,293,2.0,5.0,97,0.06,,,0.09,weatherlink.com 1.10,2014-12-28 06:19:00,
2014-12-28 01:34:00,41.1,40.0,30.00,NW,304,1.0,2.0,97,0.07,,,0.12,weatherlink.com 1.10,2014-12-28 06:34:00,
2014-12-28 01:49:00,40.9,40.0,30.00,WNW,294,1.0,2.0,97,0.06,,,0.13,weatherlink.com 1.10,2014-12-28 06:49:00,
2014-12-28 02:04:00,40.3,39.0,30.01,WNW,295,1.0,6.0,96,0.05,,,0.13,weatherlink.com 1.10,2014-12-28 07:04:00,
2014-12-28 02:19:00,39.9,39.0,30.02,NW,321,2.0,6.0,96,0.04,,,0.13,weatherlink.com 1.10,2014-12-28 07:19:00,
2014-12-28 02:34:00,39.4,38.0,30.03,NNW,329,4.0,14.0,96,0.02,,,0.14,weatherlink.com 1.10,2014-12-28 07:34:00,
2014-12-28 02:49:00,38.0,37.0,30.04,NNW,329,4.0,8.0,95,0.01,,,0.14,weatherlink.com 1.10,2014-12-28 07:49:00,
2014-12-28 03:04:00,37.5,36.0,30.04,NW,315,1.0,5.0,95,0.01,,,0.14,weatherlink.com 1.10,2014-12-28 08:04:00,
2014-12-28 03:19:00,37.3,36.0,30.05,NW,325,2.0,5.0,95,0.01,,,0.14,weatherlink.com 1.10,2014-12-28 08:19:00,
2014-12-28 03:34:00,37.0,36.0,30.05,NW,311,0.0,2.0,95,0.00,,,0.14,weatherlink.com 1.10,2014-12-28 08:34:00,
2014-12-28 03:49:00,36.6,35.0,30.05,NNW,327,2.0,4.0,95,0.00,,,0.14,weatherlink.com 1.10,2014-12-28 08:49:00,
2014-12-28 04:04:00,36.1,35.0,30.05,NNW,343,2.0,3.0,95,0.00,,,0.14,weatherlink.com 1.10,2014-12-28 09:04:00,
2014-12-28 04:19:00,35.8,35.0,30.06,NW,315,1.0,3.0,95,0.00,,,0.14,weatherlink.com 1.10,2014-12-28 09:19:00,
2014-12-28 04:34:00,35.5,34.0,30.05,NW,326,2.0,4.0,95,0.00,,,0.14,weatherlink.com 1.10,2014-12-28 09:34:00,
2014-12-28 04:49:00,35.3,34.0,30.07,WNW,298,5.0,6.0,94,0.00,,,0.14,weatherlink.com 1.10,2014-12-28 09:49:00,
2014-12-28 05:04:00,34.7,33.0,30.07,WNW,293,2.0,7.0,94,0.00,,,0.14,weatherlink.com 1.10,2014-12-28 10:04:00,
2014-12-28 05:19:00,34.4,33.0,30.07,WNW,295,4.0,5.0,95,0.00,,,0.14,weatherlink.com 1.10,2014-12-28 10:19:00,
2014-12-28 05:34:00,34.3,33.0,30.07,WNW,285,2.0,4.0,95,0.00,,,0.14,weatherlink.com 1.10,2014-12-28 10:34:00,
2014-12-28 05:49:00,34.1,33.0,30.08,NW,311,2.0,5.0,96,0.00,,,0.14,weatherlink.com 1.10,2014-12-28 10:49:00,
2014-12-28 06:04:00,34.0,33.0,30.09,North,356,4.0,7.0,96,0.00,,,0.14,weatherlink.com 1.10,2014-12-28 11:04:00,
2014-12-28 06:19:00,33.9,33.0,30.09,NW,321,3.0,4.0,96,0.01,,,0.15,weatherlink.com 1.10,2014-12-28 11:19:00,
2014-12-28 06:34:00,33.7,33.0,30.09,NNW,340,4.0,6.0,96,0.01,,,0.15,weatherlink.com 1.10,2014-12-28 11:34:00,
2014-12-28 06:49:00,33.3,32.0,30.10,NNW,336,3.0,4.0,96,0.01,,,0.15,weatherlink.com 1.10,2014-12-28 11:49:00,
2014-12-28 07:04:00,33.2,32.0,30.10,NW,312,2.0,3.0,96,0.01,,,0.15,weatherlink.com 1.10,2014-12-28 12:04:00,
2014-12-28 07:19:00,33.1,32.0,30.09,NW,325,1.0,4.0,96,0.00,,,0.15,weatherlink.com 1.10,2014-12-28 12:19:00,
2014-12-28 07:34:00,33.1,32.0,30.10,NNW,335,1.0,6.0,96,0.00,,,0.15,weatherlink.com 1.10,2014-12-28 12:34:00,
2014-12-28 07:49:00,33.1,32.0,30.11,NNW,335,2.0,5.0,96,0.00,,,0.15,weatherlink.com 1.10,2014-12-28 12:49:00,
2014-12-28 08:04:00,33.0,32.0,30.10,NNW,332,2.0,5.0,95,0.00,,,0.15,weatherlink.com 1.10,2014-12-28 13:04:00,
2014-12-28 08:19:00,32.8,32.0,30.09,NNE,25,3.0,4.0,95,0.00,,,0.15,weatherlink.com 1.10,2014-12-28 13:19:00,
2014-12-28 08:34:00,32.7,31.0,30.11,NNW,330,3.0,6.0,94,0.00,,,0.15,weatherlink.com 1.10,2014-12-28 13:34:00,
2014-12-28 08:49:00,32.6,31.0,30.12,NNW,335,2.0,4.0,93,0.00,,,0.15,weatherlink.com 1.10,2014-12-28 13:49:00,
2014-12-28 09:05:00,32.6,31.0,30.13,NNW,327,2.0,5.0,93,0.00,,,0.15,weatherlink.com 1.10,2014-12-28 14:05:00,
2014-12-28 09:20:00,32.4,30.0,30.14,NNW,327,2.0,4.0,91,0.00,,,0.15,weatherlink.com 1.10,2014-12-28 14:20:00,
2014-12-28 09:35:00,32.5,30.0,30.13,NNW,337,1.0,3.0,91,0.00,,,0.15,weatherlink.com 1.10,2014-12-28 14:35:00,
2014-12-28 09:50:00,32.7,30.0,30.12,NNW,342,1.0,2.0,90,0.00,,,0.15,weatherlink.com 1.10,2014-12-28 14:50:00,
2014-12-28 10:05:00,33.1,30.0,30.15,NW,304,3.0,6.0,88,0.00,,,0.15,weatherlink.com 1.10,2014-12-28 15:05:00,
2014-12-28 10:20:00,33.5,31.0,30.15,WNW,297,2.0,5.0,89,0.00,,,0.15,weatherlink.com 1.10,2014-12-28 15:20:00,
2014-12-28 10:35:00,33.9,31.0,30.17,NW,315,2.0,3.0,88,0.00,,,0.15,weatherlink.com 1.10,2014-12-28 15:35:00,
2014-12-28 10:50:00,34.0,31.0,30.15,West,259,1.0,3.0,88,0.00,,,0.15,weatherlink.com 1.10,2014-12-28 15:50:00,
2014-12-28 11:05:00,34.1,31.0,30.14,NNW,333,1.0,3.0,87,0.00,,,0.15,weatherlink.com 1.10,2014-12-28 16:05:00,
2014-12-28 11:20:00,34.4,31.0,30.14,NW,323,1.0,3.0,87,0.00,,,0.15,weatherlink.com 1.10,2014-12-28 16:20:00,
2014-12-28 11:35:00,34.7,31.0,30.14,NNW,346,2.0,3.0,86,0.00,,,0.15,weatherlink.com 1.10,2014-12-28 16:35:00,
2014-12-28 11:50:00,34.6,31.0,30.14,WNW,300,2.0,5.0,86,0.00,,,0.15,weatherlink.com 1.10,2014-12-28 16:50:00,
2014-12-28 12:05:00,34.5,31.0,30.13,NNW,347,0.0,4.0,86,0.00,,,0.15,weatherlink.com 1.10,2014-12-28 17:05:00,
2014-12-28 12:20:00,34.7,31.0,30.13,West,280,1.0,4.0,86,0.00,,,0.15,weatherlink.com 1.10,2014-12-28 17:20:00,
2014-12-28 12:35:00,34.8,31.0,30.12,NNW,328,1.0,3.0,86,0.00,,,0.15,weatherlink.com 1.10,2014-12-28 17:35:00,
2014-12-28 12:50:00,35.2,31.0,30.12,NNW,331,2.0,4.0,86,0.00,,,0.15,weatherlink.com 1.10,2014-12-28 17:50:00,
2014-12-28 13:05:00,35.2,31.0,30.11,NW,315,0.0,3.0,84,0.00,,,0.15,weatherlink.com 1.10,2014-12-28 18:05:00,
2014-12-28 13:20:00,35.3,31.0,30.12,NNW,333,2.0,4.0,84,0.00,,,0.15,weatherlink.com 1.10,2014-12-28 18:20:00,
2014-12-28 13:35:00,35.3,31.0,30.13,NW,304,0.0,3.0,84,0.00,,,0.15,weatherlink.com 1.10,2014-12-28 18:35:00,
2014-12-28 13:50:00,35.4,31.0,30.12,WNW,301,1.0,2.0,84,0.00,,,0.15,weatherlink.com 1.10,2014-12-28 18:50:00,
2014-12-28 14:05:00,35.4,31.0,30.11,NW,325,1.0,3.0,84,0.00,,,0.15,weatherlink.com 1.10,2014-12-28 19:05:00,
2014-12-28 14:20:00,35.4,31.0,30.12,NW,321,0.0,3.0,84,0.00,,,0.15,weatherlink.com 1.10,2014-12-28 19:20:00,
2014-12-28 14:35:00,35.8,31.0,30.12,WNW,302,2.0,3.0,82,0.00,,,0.15,weatherlink.com 1.10,2014-12-28 19:35:00,
2014-12-28 14:50:00,35.8,31.0,30.13,NNW,329,2.0,4.0,82,0.00,,,0.15,weatherlink.com 1.10,2014-12-28 19:50:00,
2014-12-28 15:05:00,35.9,31.0,30.12,NW,319,1.0,5.0,82,0.00,,,0.15,weatherlink.com 1.10,2014-12-28 20:05:00,
2014-12-28 15:20:00,35.9,31.0,30.12,WNW,297,3.0,3.0,81,0.00,,,0.15,weatherlink.com 1.10,2014-12-28 20:20:00,
2014-12-28 15:35:00,35.9,31.0,30.14,WNW,294,3.0,5.0,81,0.00,,,0.15,weatherlink.com 1.10,2014-12-28 20:35:00,
2014-12-28 15:50:00,35.9,31.0,30.14,NNW,347,2.0,4.0,81,0.00,,,0.15,weatherlink.com 1.10,2014-12-28 20:50:00,
2014-12-28 16:05:00,35.9,31.0,30.14,WNW,297,0.0,6.0,81,0.00,,,0.15,weatherlink.com 1.10,2014-12-28 21:05:00,
2014-12-28 16:20:00,35.7,30.0,30.14,NW,311,2.0,3.0,81,0.00,,,0.15,weatherlink.com 1.10,2014-12-28 21:20:00,
2014-12-28 16:35:00,35.5,31.0,30.14,NW,308,1.0,4.0,82,0.00,,,0.15,weatherlink.com 1.10,2014-12-28 21:35:00,
2014-12-28 16:50:00,35.4,31.0,30.15,North,359,1.0,3.0,83,0.00,,,0.15,weatherlink.com 1.10,2014-12-28 21:50:00,
2014-12-28 17:05:00,35.3,31.0,30.16,WNW,285,0.0,2.0,83,0.00,,,0.15,weatherlink.com 1.10,2014-12-28 22:05:00,
2014-12-28 17:20:00,35.1,30.0,30.16,North,353,0.0,1.0,83,0.00,,,0.15,weatherlink.com 1.10,2014-12-28 22:20:00,
2014-12-28 17:35:00,35.0,31.0,30.16,WNW,294,0.0,1.0,84,0.00,,,0.15,weatherlink.com 1.10,2014-12-28 22:35:00,
2014-12-28 17:50:00,34.7,30.0,30.17,WNW,297,0.0,1.0,84,0.00,,,0.15,weatherlink.com 1.10,2014-12-28 22:50:00,
2014-12-28 18:05:00,34.5,30.0,30.17,NW,317,1.0,2.0,84,0.00,,,0.15,weatherlink.com 1.10,2014-12-28 23:05:00,
2014-12-28 18:20:00,34.2,30.0,30.17,NW,308,0.0,3.0,84,0.00,,,0.15,weatherlink.com 1.10,2014-12-28 23:20:00,